Tracking 28081 objects as of 26-Sep-2023
HD Live streaming from Space Station
objects crossing your sky now

STARLINK-5277

Track STARLINK-5277 now!
10-day predictions
STARLINK-5277 is classified as:


NORAD ID: 55269
Int'l Code: 2023-010A
Perigee: 577.2 km
Apogee: 581.1 km
Inclination: 70.0 °
Period: 96.1 minutes
Semi major axis: 6950 km
RCS: Unknown
Launch date: January 19, 2023
Source: United States (US)
Launch site: AIR FORCE WESTERN TEST RANGE (AFWTR)
Your satellite tracking list
Your tracking list is empty




NASA's NSSDC Master Catalog

Two Line Element Set (TLE):
1 55269U 23010A   23268.90283399  .00002642  00000-0  22912-3 0  9990
2 55269  70.0015 143.1421 0002799 262.6778  97.4063 14.98338715 38888
Source of the keplerian elements: AFSPC